Torna al catalogo

FENGYUN 1C DEB

AttivoSSO
NORAD 31433·DEBRIS·🇨🇳 China

Lanciato May 10, 1999 da Taiyuan Satellite Launch Center

Loading…

Prossimi Passaggi (prossime 24 ore)

TLE

AggiornatoSource: Space-Track

Epoca: Sep 14, 2026, 04:02 UTC

1 31433U 99025BTV 26257.16859398  .00002983  00000-0  11606-2 0  9998
2 31433  98.3953 154.9527 0094944 301.5150 216.9526 14.28063653994800

Traccia FENGYUN 1C DEB in tempo reale con AllMySat

Download on the App Store